STARLINK-5481, 57255

Orbit data source: Space-Track

STARLINK-5481, 57255 is a payload satellite owned by SpaceX/Seattle (US) in LEO that was launched on Fri, 07 Jul 2023 UTC via an FALCON 9 launch vehicle from the Air Force Western Test Range (AFWTR). Payload-class satellites include a variety of spacecraft equipped with specific instruments for various scientific and technological missions. These include communications satellites like Starlink; space stations such as the ISS; scientific satellites like the Hubble; Earth observation satellites from companies like Planet Labs, Umbra, and HawkEye 360; GPS; miniature CubeSats for education and research; and military/defense satellites.

Loading next visibility...
Identifier
57255, 2023-094AP
Orbit
LEO
Country
Flag of USUS
Related business
Manufacturer
SpaceX/Seattle
Mission
Operational Commercial Communications
Bus & Motor
STARLINK, Unknown motor
Mass
305 kg wet, ~290 kg dry
Launch date (UTC)
2023-07-07 (3 years ago)
Launch vehicle
FALCON 9
Launch site
Air Force Western Test Range (AFWTR)
Object type
Payload
Rocket body
Debris
Shape & HBR
Box + 1 Pan, 10.1 m
Radar Cross Section
11.087 m², Large (>1 m²)

Expand to show TLE details & history
Last TLE update: 2 days ago

TLE from 2 days ago
0 STARLINK-5481
1 57255U 23094AP  26171.01891353  .00000203  00000-0  16910-4 0  9995
2 57255  43.0021 161.6624 0001018 287.1652  72.9088 15.27576309162898
Epoch: 2026-06-20T00:27Z
TLE epoch observation values (Epoch: 2026-06-20T00:27:14.128Z)
Latitude
-0.00005°
Longitude
-113.38607°
Altitude
482.631 km
Speed
7.626 km/s
True Right ascension
10h 46m 38s
True Declination
0° 00' 00"
Sunlit
Object was in daylight at epoch
Visualization orbit readout
Latitude
Unknown
Longitude
Unknown
Altitude
Unknown
Speed
Unknown
Apparent Right ascension
Unknown
Apparent Declination
Unknown
Sunlit
N/A
Visualization observer readout
Local Sidereal Time
21:27:19
Azimuth
Unknown
Elevation
Unknown
Doppler factor
Unknown
Orbital elements
Apogee altitude
485.704 km
Perigee altitude
484.306 km
Semi-major axis
6,863.142 km
Eccentricity
0.0001
Inclination
43.0021°
RAAN
161.6624°
Arg. of periapsis
287.1652°
True anomaly
72.91995°
Mean anomaly
72.9088°
Eccentric anomaly
72.91438°
Mean motion
3.81732 °/min
Orbital period
94.31 mins
BSTAR
0.00001691
Loading maneuver chart data...
Computing Atmospheric mass density...
Loading historical data...
Loading historical data...
Loading historical data...
Loading historical data...
Loading historical data...
Loading historical data...
Loading historical data...

Documentation

Showing up to 5 results
|